Thu, 24 Jun 2021 17:05:40 UTC

Information for RPM xxhash-libs-0.7.4-1.fc33.aarch64.rpm

ID21987373
Namexxhash-libs
Version0.7.4
Release1.fc33
Epoch
Archaarch64
SummaryExtremely fast hash algorithm - library
DescriptionxxHash is an Extremely fast Hash algorithm, running at RAM speed limits. It successfully completes the SMHasher test suite which evaluates collision, dispersion and randomness qualities of hash functions. Code is highly portable, and hashes are identical on all platforms (little / big endian).
Build Time2020-06-27 19:38:20 GMT
Size32,699
b5ab20fa5212fbce72a50601e08da83d
LicenseBSD
Buildrootf33-build-21232161-1658531
Provides
libxxhash.so.0()(64bit)
xxhash-libs = 0.7.4-1.fc33
xxhash-libs(aarch-64) = 0.7.4-1.fc33
Obsoletes No Obsoletes
Conflicts No Conflicts
Requires
ld-linux-aarch64.so.1()(64bit)
ld-linux-aarch64.so.1(GLIBC_2.17)(64bit)
libc.so.6()(64bit)
libc.so.6(GLIBC_2.17)(64bit)
rpmlib(CompressedFileNames) <= 3.0.4-1
rpmlib(FileDigests) <= 4.6.0-1
rpmlib(PayloadFilesHavePrefix) <= 4.0-1
rpmlib(PayloadIsZstd) <= 5.4.18-1
rtld(GNU_HASH)
Recommends No Recommends
Suggests No Suggests
Supplements No Supplements
Enhances No Enhances
Files
1 through 9 of 9
Name ascending sort Size
/usr/lib/.build-id0
/usr/lib/.build-id/0b0
/usr/lib/.build-id/0b/599b49fdd8707f4fd887bdeec78d715d76b41240
/usr/lib64/libxxhash.so.018
/usr/lib64/libxxhash.so.0.7.469,424
/usr/share/doc/xxhash-libs0
/usr/share/doc/xxhash-libs/README.md11,920
/usr/share/licenses/xxhash-libs0
/usr/share/licenses/xxhash-libs/LICENSE2,228
Component of
Page:
1 through 50 of 29530 >>>
Buildroot descending sort Created State
f33-build-21752829-1736590 2020-07-26 12:42:48 expired
f33-build-21752372-1754267 2020-07-26 09:58:06 expired
f33-build-21745049-1768544 2020-07-25 21:13:23 expired
f33-build-21743909-1768544 2020-07-25 17:34:03 expired
f33-build-21741891-1768544 2020-07-25 13:31:41 expired
f33-build-21740090-1768544 2020-07-25 09:44:46 expired
f33-build-21737296-1768544 2020-07-25 05:59:11 expired
f33-build-21735475-1731729 2020-07-25 03:47:35 expired
f33-build-21733923-1768544 2020-07-25 02:19:44 expired
f33-build-21729136-1768544 2020-07-24 22:33:20 expired
f33-build-21726179-1768544 2020-07-24 18:42:16 expired
f33-build-21724122-1771533 2020-07-24 14:55:45 expired
f33-build-21724107-1771533 2020-07-24 14:55:10 expired
f33-build-21724102-1771533 2020-07-24 14:54:55 expired
f33-build-21724093-1771533 2020-07-24 14:54:49 expired
f33-build-21724082-1771533 2020-07-24 14:52:13 expired
f33-build-21724076-1771533 2020-07-24 14:52:05 expired
f33-build-21724074-1771533 2020-07-24 14:52:02 expired
f33-build-21724073-1768544 2020-07-24 14:51:54 expired
f33-build-21724069-1771533 2020-07-24 14:51:46 expired
f33-build-21724067-1771533 2020-07-24 14:51:33 expired
f33-build-21724061-1771533 2020-07-24 14:51:00 expired
f33-build-21724052-1771533 2020-07-24 14:50:42 expired
f33-build-21724051-1771533 2020-07-24 14:50:41 expired
f33-build-21724050-1771533 2020-07-24 14:50:36 expired
f33-build-21724048-1771533 2020-07-24 14:50:16 expired
f33-build-21724047-1771533 2020-07-24 14:50:13 expired
f33-build-21724046-1771533 2020-07-24 14:50:12 expired
f33-build-21724045-1771533 2020-07-24 14:50:07 expired
f33-build-21724043-1771533 2020-07-24 14:49:57 expired
f33-build-21724040-1771533 2020-07-24 14:49:52 expired
f33-build-21724039-1771533 2020-07-24 14:49:46 expired
f33-build-21724038-1771533 2020-07-24 14:49:15 expired
f33-build-21724037-1771533 2020-07-24 14:49:14 expired
f33-build-21724036-1771533 2020-07-24 14:49:02 expired
f33-build-21724035-1771533 2020-07-24 14:48:54 expired
f33-build-21724034-1771533 2020-07-24 14:48:50 expired
f33-build-21724033-1771533 2020-07-24 14:48:49 expired
f33-build-21724032-1771533 2020-07-24 14:48:40 expired
f33-build-21724028-1771533 2020-07-24 14:48:28 expired
f33-build-21724026-1771533 2020-07-24 14:48:25 expired
f33-build-21724023-1771533 2020-07-24 14:48:12 expired
f33-build-21724021-1771533 2020-07-24 14:47:57 expired
f33-build-21724017-1771533 2020-07-24 14:47:28 expired
f33-build-21724016-1771533 2020-07-24 14:47:27 expired
f33-build-21724015-1771533 2020-07-24 14:47:26 expired
f33-build-21724014-1771533 2020-07-24 14:47:19 expired
f33-build-21724013-1771533 2020-07-24 14:47:17 expired
f33-build-21724011-1771533 2020-07-24 14:47:08 expired
f33-build-21724004-1771533 2020-07-24 14:46:22 expired